Location: ???????
(55.4362°N, 38.1183°E)
Time: 11:09:46
(UTC+00:00)

USA 267 - Pass Details

Date: 25 October 2021
Orbit: 1101 x 1107 km, 123.0° (Epoch: 25 November)

Event Time Altitude Azimuth Distance (km) Brightness Sun altitude
Rises 17:10:55 0° 184° (S) 3,907 6.0 -26.9°
Reaches altitude 10° 17:14:52 10° 208° (SSW) 2,954 5.6 -27.4°
Maximum altitude 17:18:07 14° 239° (WSW) 2,656 5.7 -27.8°
Drops below altitude 10° 17:21:22 10° 269° (W) 2,961 6.3 -28.3°
Sets 17:25:22 0° 293° (WNW) 3,924 7.4 -28.8°
